Good Hope, IL

6:31 AM CST on December 11, 2016 (GMT -0600)
Macomb Municipal

Weather History for KMQB - June, 2013

Change the Weather History Date:

Thursday, June 20, 2013

  Actual Average (KBRL) Record (KBRL)
Temperature  
Mean Temperature 77 °F -  
Max Temperature 92 °F 84 °F 100 °F (1988)
Min Temperature 63 °F 64 °F 45 °F (1914)
Cooling Degree Days 12    
Growing Degree Days 27 (Base 50)    
Moisture  
Dew Point 63 °F    
Average Humidity 61    
Maximum Humidity 91    
Minimum Humidity 33    
Precipitation  
Precipitation 0.00 in - - ()
Sea Level Pressure  
Sea Level Pressure 30.10 in    
Wind  
Wind Speed 4 mph (SSE)    
Max Wind Speed 15 mph    
Max Gust Speed 22 mph    
Visibility 10 miles    
Events      
Averages and records for this station are not official NWS values.
T = Trace of Precipitation, MM = Missing Value Source: NWS Daily Summary

Daily Weather History Graph

Daily Weather History Graph

Search for Another Location

Airport or City:

Trip Planner

Search our weather history database for the weather conditions in past years. The results will help you decide how hot, cold, wet, or windy it might be!

Date:

Astronomy

Jun. 20, 2013 Rise Set
Actual Time 5:32 AM CDT 8:36 PM CDT
Civil Twilight 4:58 AM CDT 9:09 PM CDT
Nautical Twilight 4:16 AM CDT 9:52 PM CDT
Astronomical Twilight 3:26 AM CDT 10:42 PM CDT
Moon 5:38 PM CDT (6/20) 2:59 AM CDT (6/20)
Length of Visible Light 16h 10m
Length of Day
15h 04m
Waxing Gibbous, 89% of the Moon is Illuminated
Jun 20
Waxing Gibbous
Jun 23
Full
Jun 29
Last Quarter
Jul 8
New
Jul 15
First Quarter

Hourly Weather History & Observations

Time (CDT) Temp. Heat Index Dew Point Humidity Pressure Visibility Wind Dir Wind Speed Gust Speed Precip Events Conditions
12:15 AM 69.1 °F - 62.8 °F 80% 30.09 in 10.0 mi Calm Calm - N/A   Clear
12:35 AM 69.8 °F - 62.2 °F 77% 30.09 in 10.0 mi Calm Calm - N/A   Clear
12:55 AM 68.4 °F - 63.0 °F 83% 30.10 in 10.0 mi Calm Calm - N/A   Clear
1:15 AM 68.0 °F - 62.6 °F 83% 30.10 in 10.0 mi Calm Calm - N/A   Clear
1:35 AM 68.2 °F - 62.4 °F 82% 30.09 in 10.0 mi Calm Calm - N/A   Clear
1:55 AM 68.0 °F - 62.2 °F 82% 30.10 in 10.0 mi Calm Calm - N/A   Clear
2:15 AM 67.1 °F - 62.6 °F 85% 30.10 in 10.0 mi East 3.5 mph - N/A   Clear
2:35 AM 66.6 °F - 62.6 °F 87% 30.10 in 10.0 mi Calm Calm - N/A   Clear
2:55 AM 66.4 °F - 61.9 °F 85% 30.11 in 10.0 mi Calm Calm - N/A   Clear
3:15 AM 65.3 °F - 61.7 °F 88% 30.11 in 10.0 mi NE 4.6 mph - N/A   Clear
3:35 AM 65.5 °F - 62.1 °F 89% 30.10 in 10.0 mi NE 4.6 mph - N/A   Clear
3:55 AM 65.5 °F - 62.4 °F 90% 30.10 in 10.0 mi ENE 4.6 mph - N/A   Clear
4:15 AM 64.8 °F - 61.5 °F 89% 30.11 in 10.0 mi Calm Calm - N/A   Clear
4:35 AM 65.3 °F - 61.7 °F 88% 30.11 in 10.0 mi Calm Calm - N/A   Clear
4:55 AM 64.6 °F - 61.3 °F 89% 30.11 in 10.0 mi ENE 4.6 mph - N/A   Clear
5:15 AM 64.4 °F - 61.0 °F 89% 30.11 in 10.0 mi ENE 3.5 mph - N/A   Clear
5:35 AM 64.0 °F - 60.8 °F 89% 30.11 in 10.0 mi Calm Calm - N/A   Clear
5:55 AM 63.9 °F - 61.2 °F 91% 30.11 in 10.0 mi East 3.5 mph - N/A   Clear
6:15 AM 64.4 °F - 61.3 °F 90% 30.12 in 10.0 mi Calm Calm - N/A   Clear
6:35 AM 65.8 °F - 62.6 °F 89% 30.13 in 10.0 mi Calm Calm - N/A   Clear
6:55 AM 67.1 °F - 63.0 °F 87% 30.13 in 10.0 mi Calm Calm - N/A   Clear
7:15 AM 67.6 °F - 63.7 °F 87% 30.13 in 10.0 mi Calm Calm - N/A   Clear
7:35 AM 70.2 °F - 64.2 °F 81% 30.13 in 10.0 mi Calm Calm - N/A   Clear
7:55 AM 72.3 °F - 64.4 °F 76% 30.14 in 10.0 mi SE 3.5 mph - N/A   Clear
8:15 AM 74.3 °F - 65.3 °F 73% 30.14 in 10.0 mi SE 4.6 mph - N/A   Clear
8:35 AM 76.8 °F - 65.7 °F 68% 30.14 in 10.0 mi SSE 4.6 mph - N/A   Clear
8:55 AM 79.0 °F - 66.0 °F 64% 30.14 in 10.0 mi SSE 6.9 mph - N/A   Clear
9:15 AM 80.1 °F 82.0 °F 65.7 °F 61% 30.14 in 10.0 mi SSE 8.1 mph - N/A   Clear
9:35 AM 81.7 °F 83.6 °F 65.5 °F 58% 30.14 in 10.0 mi SSE 9.2 mph - N/A   Clear
9:55 AM 82.9 °F 84.8 °F 65.5 °F 55% 30.13 in 10.0 mi South 9.2 mph - N/A   Clear
10:15 AM 84.0 °F 85.2 °F 63.7 °F 50% 30.13 in 10.0 mi SSE 10.4 mph - N/A   Clear
10:35 AM 84.6 °F 86.1 °F 64.4 °F 51% 30.13 in 10.0 mi SSE 9.2 mph - N/A   Clear
10:55 AM 85.1 °F 86.1 °F 63.3 °F 48% 30.13 in 10.0 mi South 9.2 mph - N/A   Clear
11:15 AM 86.0 °F 87.1 °F 63.5 °F 47% 30.14 in 10.0 mi SSE 10.4 mph - N/A   Clear
11:35 AM 86.7 °F 87.0 °F 62.1 °F 43% 30.13 in 10.0 mi SE 10.4 mph - N/A   Clear
11:55 AM 86.9 °F 87.2 °F 62.1 °F 43% 30.13 in 10.0 mi South 8.1 mph - N/A   Clear
12:15 PM 88.2 °F 89.0 °F 62.8 °F 43% 30.13 in 10.0 mi South 10.4 mph - N/A   Clear
12:35 PM 88.7 °F 89.8 °F 63.7 °F 43% 30.12 in 10.0 mi South 10.4 mph 16.1 mph N/A   Clear
12:55 PM 88.0 °F 89.0 °F 63.3 °F 44% 30.11 in 10.0 mi South 11.5 mph - N/A   Scattered Clouds
1:15 PM 88.9 °F 90.0 °F 63.9 °F 43% 30.11 in 10.0 mi South 11.5 mph 17.3 mph N/A   Scattered Clouds
1:35 PM 89.6 °F 90.8 °F 63.7 °F 42% 30.10 in 10.0 mi South 10.4 mph - N/A   Scattered Clouds
1:55 PM 90.5 °F 91.1 °F 62.2 °F 39% 30.10 in 10.0 mi SSE 10.4 mph - N/A   Scattered Clouds
2:15 PM 90.5 °F 92.2 °F 64.2 °F 42% 30.09 in 10.0 mi South 11.5 mph 16.1 mph N/A   Scattered Clouds
2:35 PM 91.4 °F 92.1 °F 62.4 °F 38% 30.09 in 10.0 mi South 10.4 mph 19.6 mph N/A   Scattered Clouds
2:55 PM 90.5 °F 91.4 °F 62.8 °F 40% 30.09 in 10.0 mi South 10.4 mph - N/A   Scattered Clouds
3:15 PM 91.0 °F 91.2 °F 61.3 °F 37% 30.08 in 10.0 mi South 12.7 mph 18.4 mph N/A   Clear
3:35 PM 91.9 °F 91.2 °F 59.2 °F 33% 30.08 in 10.0 mi South 15.0 mph 21.9 mph N/A   Clear
3:55 PM 91.6 °F 91.0 °F 59.7 °F 34% 30.08 in 10.0 mi South 10.4 mph - N/A   Clear
4:15 PM 91.4 °F 92.4 °F 63.1 °F 39% 30.08 in 10.0 mi SE 10.4 mph 16.1 mph N/A   Scattered Clouds
4:35 PM 91.6 °F 92.3 °F 62.8 °F 38% 30.08 in 10.0 mi SSE 13.8 mph - N/A   Mostly Cloudy
4:55 PM 91.2 °F 91.8 °F 62.1 °F 38% 30.07 in 10.0 mi SSE 9.2 mph 16.1 mph N/A   Mostly Cloudy
5:15 PM 90.9 °F 91.3 °F 61.9 °F 38% 30.06 in 10.0 mi SSE 10.4 mph 19.6 mph N/A   Mostly Cloudy
5:35 PM 90.7 °F 91.0 °F 61.5 °F 38% 30.06 in 10.0 mi SSE 10.4 mph - N/A   Scattered Clouds
5:55 PM 90.5 °F 90.7 °F 61.9 °F 38% 30.06 in 10.0 mi SE 11.5 mph 17.3 mph N/A   Scattered Clouds
6:15 PM 90.7 °F 91.3 °F 62.6 °F 39% 30.05 in 10.0 mi South 9.2 mph - N/A   Scattered Clouds
6:35 PM 90.5 °F 91.1 °F 62.2 °F 39% 30.05 in 10.0 mi SSE 11.5 mph - N/A   Scattered Clouds
6:55 PM 89.8 °F 90.0 °F 61.7 °F 39% 30.05 in 10.0 mi South 8.1 mph 17.3 mph N/A   Scattered Clouds
7:15 PM 89.1 °F 89.6 °F 62.2 °F 41% 30.05 in 10.0 mi South 9.2 mph - N/A   Clear
7:35 PM 88.0 °F 89.0 °F 63.7 °F 44% 30.05 in 10.0 mi South 6.9 mph - N/A   Clear
7:55 PM 86.9 °F 88.1 °F 64.0 °F 46% 30.05 in 10.0 mi SSE 8.1 mph - N/A   Clear
8:15 PM 86.0 °F 87.3 °F 64.2 °F 48% 30.05 in 10.0 mi SSE 6.9 mph - N/A   Clear
8:35 PM 84.6 °F 86.1 °F 64.8 °F 51% 30.06 in 10.0 mi South 5.8 mph - N/A   Clear
8:55 PM 83.5 °F 85.3 °F 65.5 °F 54% 30.06 in 10.0 mi South 6.9 mph - N/A   Clear
9:15 PM 82.0 °F 84.1 °F 65.8 °F 58% 30.06 in 10.0 mi South 5.8 mph - N/A   Clear
9:35 PM 81.7 °F 83.8 °F 66.2 °F 59% 30.07 in 10.0 mi SSE 6.9 mph - N/A   Clear
9:55 PM 80.8 °F 83.1 °F 66.6 °F 62% 30.07 in 10.0 mi SSE 5.8 mph - N/A   Clear
10:15 PM 80.6 °F 82.8 °F 66.4 °F 62% 30.08 in 10.0 mi SSE 6.9 mph - N/A   Clear
10:35 PM 80.1 °F 82.1 °F 65.8 °F 62% 30.08 in 10.0 mi SSE 8.1 mph - N/A   Clear
10:55 PM 79.7 °F - 65.3 °F 61% 30.08 in 10.0 mi SSE 8.1 mph - N/A   Clear
11:15 PM 79.7 °F - 64.8 °F 60% 30.08 in 10.0 mi SSE 9.2 mph - N/A   Clear
11:35 PM 79.7 °F - 64.6 °F 60% 30.08 in 10.0 mi SSE 8.1 mph - N/A   Clear
11:55 PM 79.7 °F - 64.8 °F 60% 30.08 in 10.0 mi SSE 9.2 mph - N/A   Clear